Total_Precipitation_Accumulation
0.39 0.66 0.91 0.80 0.84 0.89 0.76 0.76 0.83 0.83 0.69 0.76 0.84 0.81 0.87 0.86 0.82 0.70 0.60 0.50 0.46 0.43 0.43 0.39 0.35 0.35 0.34 0.34 0.36 0.42 0.60 0.77 0.91 1.02 1.15 1.40 1.56 1.65 1.64 1.64 1.70 1.62 1.44 1.52
0.55 0.63 0.53 0.52 0.57 0.66 0.69 0.73 0.79 0.74 0.61 0.66 0.73 0.76 0.80 0.77 0.70 0.57 0.52 0.46 0.39 0.36 0.35 0.33 0.27 0.26 0.25 0.24 0.29 0.35 0.50 0.75 0.98 1.18 1.35 1.53 1.85 2.01 2.01 2.07 2.01 1.96 1.85 1.87
0.50 0.47 0.38 0.43 0.51 0.60 0.62 0.63 0.67 0.65 0.67 0.67 0.68 0.79 0.84 0.83 0.70 0.54 0.43 0.38 0.33 0.28 0.30 0.31 0.27 0.23 0.19 0.19 0.22 0.27 0.41 0.64 0.93 1.23 1.47 1.66 1.90 2.16 2.25 2.15 2.10 2.13 2.22 2.26
0.44 0.38 0.34 0.39 0.43 0.52 0.71 0.46 0.45 0.49 0.61 0.77 0.66 0.93 0.85 0.81 0.73 0.59 0.49 0.41 0.35 0.30 0.28 0.27 0.25 0.26 0.22 0.22 0.23 0.26 0.41 0.57 0.77 1.02 1.35 1.60 1.85 2.16 2.23 2.21 2.18 2.22 2.33 2.42
0.43 0.38 0.37 0.43 0.39 0.42 0.55 0.36 0.39 0.48 0.50 0.55 0.51 0.75 0.81 0.68 0.73 0.65 0.57 0.49 0.39 0.33 0.31 0.27 0.24 0.26 0.28 0.28 0.28 0.35 0.48 0.62 0.79 1.01 1.33 1.65 1.83 1.99 2.19 2.21 2.12 2.05 2.12 2.14
0.43 0.36 0.35 0.36 0.31 0.32 0.40 0.41 0.43 0.46 0.48 0.57 0.40 0.56 0.74 0.67 0.63 0.62 0.56 0.52 0.41 0.30 0.29 0.31 0.33 0.33 0.34 0.38 0.41 0.49 0.61 0.80 0.94 1.01 1.14 1.31 1.52 1.79 1.92 2.03 2.06 2.07 2.07 1.95
0.42 0.35 0.25 0.23 0.34 0.34 0.37 0.54 0.70 0.71 0.69 0.61 0.32 0.46 0.59 0.51 0.46 0.52 0.50 0.48 0.44 0.40 0.40 0.46 0.53 0.49 0.47 0.50 0.60 0.67 0.74 0.82 0.87 0.85 0.90 1.02 1.18 1.40 1.53 1.62 1.81 1.89 1.92 1.87
0.40 0.36 0.25 0.20 0.25 0.35 0.36 0.45 0.67 0.75 0.66 0.54 0.43 0.57 0.59 0.48 0.42 0.45 0.46 0.41 0.40 0.45 0.51 0.64 0.75 0.77 0.73 0.71 0.73 0.71 0.73 0.70 0.70 0.72 0.78 0.84 0.90 1.04 1.15 1.23 1.38 1.51 1.51 1.49
0.36 0.32 0.18 0.16 0.15 0.23 0.32 0.27 0.28 0.43 0.42 0.49 0.52 0.63 0.63 0.46 0.40 0.43 0.45 0.41 0.41 0.54 0.66 0.81 0.93 0.99 0.94 0.86 0.79 0.76 0.77 0.74 0.67 0.67 0.74 0.80 0.84 0.84 0.88 0.92 0.91 0.99 1.07 1.10
0.28 0.31 0.20 0.14 0.14 0.16 0.21 0.22 0.27 0.48 0.65 0.69 0.59 0.65 0.73 0.60 0.48 0.50 0.54 0.59 0.66 0.81 0.87 0.98 1.05 1.03 1.01 1.06 1.01 0.84 0.79 0.80 0.74 0.81 0.81 0.77 0.75 0.73 0.72 0.76 0.81 0.82 0.90 1.00
0.24 0.31 0.23 0.15 0.16 0.18 0.18 0.23 0.35 0.54 0.60 0.81 0.93 0.99 0.77 0.63 0.62 0.63 0.68 0.85 0.91 1.00 1.06 1.07 1.14 1.07 0.93 0.94 0.92 0.90 0.86 0.82 0.84 0.86 0.86 0.76 0.73 0.73 0.73 0.70 0.74 0.82 0.90 1.00
0.30 0.39 0.32 0.18 0.16 0.19 0.30 0.42 0.55 0.84 0.82 0.77 1.06 1.21 0.84 0.70 0.71 0.74 0.74 0.72 0.73 0.91 1.01 1.02 1.09 1.00 0.85 0.80 0.71 0.75 0.83 0.85 0.93 0.93 0.85 0.76 0.75 0.78 0.84 0.82 0.76 0.79 0.85 0.86
0.37 0.54 0.53 0.37 0.38 0.39 0.43 0.52 0.65 0.81 0.97 0.97 1.08 1.17 0.88 0.66 0.65 0.71 0.78 0.75 0.73 0.76 0.79 0.77 0.77 0.84 0.79 0.75 0.67 0.73 0.79 0.85 0.90 0.93 0.91 0.80 0.69 0.72 0.78 0.78 0.71 0.69 0.75 0.80
0.34 0.51 0.62 0.58 0.53 0.51 0.48 0.44 0.49 0.72 1.01 1.02 1.06 1.02 0.78 0.66 0.63 0.65 0.70 0.74 0.69 0.61 0.58 0.55 0.51 0.55 0.58 0.60 0.65 0.70 0.80 0.92 0.97 0.96 0.90 0.86 0.79 0.81 0.75 0.65 0.63 0.65 0.64 0.62
0.27 0.29 0.28 0.25 0.24 0.29 0.36 0.38 0.46 0.60 0.78 1.01 0.91 0.70 0.58 0.56 0.53 0.55 0.60 0.53 0.47 0.44 0.42 0.40 0.37 0.36 0.37 0.39 0.48 0.55 0.68 0.84 0.96 1.02 0.98 0.90 0.84 0.74 0.67 0.60 0.53 0.54 0.50 0.49
0.31 0.26 0.14 0.12 0.14 0.19 0.30 0.43 0.56 0.62 0.69 0.71 0.62 0.58 0.44 0.39 0.35 0.36 0.42 0.41 0.40 0.35 0.30 0.27 0.28 0.26 0.28 0.32 0.39 0.40 0.50 0.66 0.77 0.82 0.84 0.87 0.82 0.66 0.58 0.51 0.45 0.42 0.43 0.44
0.16 0.19 0.16 0.12 0.11 0.20 0.42 0.54 0.61 0.60 0.55 0.47 0.43 0.39 0.29 0.26 0.20 0.20 0.27 0.30 0.33 0.31 0.25 0.23 0.22 0.23 0.27 0.35 0.37 0.37 0.44 0.55 0.59 0.63 0.67 0.70 0.67 0.53 0.47 0.38 0.33 0.36 0.37 0.41
0.13 0.18 0.25 0.18 0.17 0.38 0.63 0.52 0.46 0.50 0.39 0.24 0.22 0.22 0.21 0.17 0.13 0.11 0.12 0.14 0.15 0.18 0.18 0.22 0.20 0.19 0.21 0.27 0.34 0.42 0.43 0.43 0.44 0.48 0.51 0.51 0.51 0.46 0.39 0.31 0.30 0.32 0.35 0.40
0.20 0.26 0.32 0.28 0.29 0.45 0.57 0.38 0.35 0.41 0.36 0.18 0.13 0.12 0.10 0.09 0.07 0.05 0.06 0.08 0.09 0.08 0.09 0.12 0.12 0.12 0.13 0.14 0.15 0.17 0.20 0.22 0.25 0.34 0.40 0.44 0.43 0.39 0.34 0.29 0.36 0.42 0.42 0.42
0.33 0.36 0.37 0.36 0.43 0.55 0.41 0.16 0.16 0.28 0.42 0.16 0.08 0.06 0.05 0.05 0.07 0.05 0.05 0.07 0.06 0.04 0.04 0.05 0.08 0.08 0.08 0.07 0.06 0.06 0.07 0.11 0.15 0.21 0.27 0.33 0.37 0.38 0.41 0.49 0.57 0.58 0.54 0.49
0.21 0.27 0.34 0.43 0.62 0.62 0.36 0.14 0.16 0.30 0.43 0.22 0.08 0.04 0.03 0.03 0.03 0.03 0.04 0.05 0.04 0.03 0.02 0.03 0.05 0.06 0.07 0.06 0.05 0.05 0.05 0.04 0.04 0.07 0.12 0.21 0.34 0.40 0.48 0.59 0.61 0.61 0.56 0.46
0.21 0.31 0.41 0.54 0.71 0.78 0.40 0.21 0.24 0.22 0.14 0.11 0.06 0.03 0.02 0.02 0.03 0.03 0.04 0.03 0.03 0.04 0.03 0.03 0.04 0.05 0.07 0.08 0.06 0.06 0.10 0.06 0.04 0.06 0.10 0.15 0.24 0.33 0.46 0.54 0.53 0.53 0.54 0.49
0.20 0.36 0.49 0.54 0.59 0.50 0.30 0.19 0.14 0.10 0.09 0.04 0.02 0.02 0.01 0.02 0.03 0.04 0.04 0.03 0.03 0.03 0.03 0.04 0.05 0.06 0.06 0.07 0.07 0.07 0.06 0.07 0.06 0.06 0.07 0.09 0.15 0.26 0.40 0.43 0.42 0.45 0.48 0.48
0.09 0.12 0.20 0.22 0.16 0.15 0.13 0.10 0.06 0.04 0.04 0.02 0.01 0.01 0.01 0.02 0.02 0.03 0.03 0.03 0.03 0.03 0.03 0.03 0.04 0.04 0.05 0.05 0.05 0.06 0.06 0.06 0.05 0.05 0.05 0.05 0.06 0.08 0.14 0.18 0.22 0.29 0.34 0.35
0.10 0.11 0.18 0.22 0.11 0.06 0.05 0.04 0.03 0.02 0.02 0.01 0.00 0.01 0.01 0.02 0.02 0.02 0.01 0.02 0.03 0.04 0.03 0.03 0.03 0.04 0.04 0.04 0.04 0.04 0.05 0.06 0.07 0.06 0.04 0.04 0.06 0.07 0.07 0.09 0.12 0.15 0.18 0.21
0.06 0.13 0.17 0.20 0.13 0.07 0.04 0.03 0.03 0.02 0.01 0.01 0.01 0.00 0.00 0.01 0.02 0.02 0.01 0.01 0.01 0.02 0.03 0.03 0.03 0.04 0.04 0.04 0.04 0.04 0.04 0.04 0.06 0.07 0.06 0.04 0.04 0.05 0.05 0.06 0.07 0.09 0.10 0.12